Theta_e
314 316 317 317 317 317 316 315 313 312 313 316 317 316 316 316 314 315 314 310 309 313 316 316 316 316 316 316 317 317 316 314 313 314 314 315 317 317 318 318 318 318 319 319 319 319 319 319 318 317 317 316 315 315 315 315 315 314 314 313 313 313 312 312 312 312 313 313 313 312 313 317 318 320 320 317 317 322 326 327 328 328 327 325 322 323
314 316 317 316 315 314 313 312 312 312 313 315 315 315 316 316 315 314 312 310 309 312 316 315 314 315 316 316 317 317 316 315 315 315 315 316 316 317 317 317 318 318 318 318 318 318 318 318 318 318 317 317 316 316 316 315 315 314 314 314 313 313 312 312 311 311 313 312 313 313 312 315 318 321 323 319 318 325 328 325 325 326 325 322 320 322
315 317 316 313 311 311 310 310 312 313 314 315 315 316 315 316 315 313 311 310 310 312 315 315 314 315 316 316 317 317 317 316 316 316 316 316 316 316 317 317 317 318 317 318 318 318 318 318 318 318 318 317 317 316 316 315 315 315 315 314 313 313 313 312 311 311 312 312 313 313 314 317 321 324 325 321 319 322 324 321 322 326 325 321 321 322
315 315 313 310 311 311 310 309 312 313 314 315 316 315 315 317 316 312 312 311 310 311 313 314 313 315 316 316 317 318 317 316 316 315 315 315 316 316 317 317 317 317 317 317 317 317 318 317 317 317 317 317 316 316 316 315 315 315 315 314 314 314 313 312 311 311 311 312 313 313 315 320 324 324 322 322 321 321 322 320 320 325 325 323 323 322
315 312 308 309 311 313 312 311 313 314 315 316 316 316 316 317 316 313 313 312 311 311 311 313 315 316 318 317 318 318 316 314 314 314 314 315 316 316 316 317 317 317 317 317 317 317 317 317 317 317 317 316 316 316 316 316 315 315 315 315 314 314 313 312 311 311 311 312 312 312 315 318 321 321 320 323 323 322 323 323 322 324 325 324 323 322
314 310 308 310 311 314 314 312 314 315 315 316 316 316 315 315 315 314 314 314 314 315 312 313 314 315 317 316 317 318 316 316 316 315 316 316 316 316 316 317 316 317 317 317 317 317 317 317 317 317 317 317 317 316 316 315 315 315 315 314 314 314 313 312 311 311 311 311 312 312 313 315 316 317 320 321 321 322 324 325 325 324 324 323 322 321
313 308 310 313 312 314 315 314 316 316 314 314 316 315 314 315 315 315 316 315 315 315 314 313 314 315 316 316 317 318 317 317 317 317 317 317 316 316 316 316 316 316 316 317 316 317 317 317 318 318 318 318 318 317 316 315 314 314 314 313 314 313 313 312 311 310 310 311 312 312 312 313 314 317 320 319 319 321 324 325 325 324 324 322 321 321
312 310 310 313 314 314 314 315 316 315 314 315 316 314 313 313 315 315 316 316 316 316 314 314 316 315 316 317 317 317 316 316 317 317 318 318 317 316 316 316 316 316 316 316 317 317 318 318 318 318 318 317 317 316 315 315 314 314 313 313 313 312 312 311 311 310 310 311 311 312 313 314 315 319 321 321 320 320 321 323 323 322 323 323 321 320
312 314 313 313 314 314 315 317 315 314 314 316 312 311 312 314 315 315 316 316 315 315 316 316 315 315 316 317 316 315 316 316 317 317 318 319 318 316 316 316 316 317 317 317 318 318 318 319 319 319 318 318 317 316 316 315 314 313 312 312 312 312 311 311 310 310 310 311 311 312 314 314 316 320 323 322 321 320 321 320 320 321 322 321 320 319
311 312 312 313 314 314 316 313 311 314 315 313 309 311 312 313 313 314 316 316 315 315 317 318 315 314 314 317 316 314 315 316 317 317 318 318 317 316 316 317 318 318 318 318 319 318 319 319 319 319 319 318 318 317 316 315 314 313 312 312 311 311 311 310 310 309 309 310 310 312 314 313 316 321 323 322 321 320 321 320 319 322 321 319 319 318
309 309 310 313 314 313 312 308 307 313 313 311 313 315 315 314 314 315 315 315 316 316 317 317 316 314 312 315 318 316 315 317 317 317 318 317 316 316 317 317 318 319 318 319 319 318 319 319 319 319 318 318 318 318 317 316 315 314 312 311 311 311 310 310 310 309 309 310 310 311 312 314 316 319 320 320 318 318 320 320 320 322 320 318 317 317
310 311 311 312 310 310 311 310 308 309 309 312 317 317 316 314 314 315 315 316 317 316 315 314 315 315 312 313 317 316 314 315 316 316 317 318 318 317 316 317 317 318 318 318 319 318 318 318 318 318 318 318 318 318 318 317 316 314 313 312 311 310 310 310 310 309 309 310 310 310 311 315 318 319 319 317 316 317 318 319 321 320 319 317 316 315
313 314 313 310 309 310 314 314 311 309 310 314 317 316 315 314 314 315 316 316 316 315 312 311 313 315 314 314 316 316 315 315 315 316 316 317 318 316 316 316 316 316 317 317 318 318 318 318 317 317 317 317 317 317 317 317 316 315 314 312 311 310 310 310 310 309 309 309 310 311 311 313 316 317 317 315 315 318 319 320 321 320 318 318 315 315
313 314 312 312 311 311 314 315 314 313 312 315 317 316 314 314 314 316 315 313 313 313 309 308 313 315 315 316 316 316 316 317 316 316 315 315 315 315 315 315 315 316 316 317 317 317 318 318 317 317 317 317 317 317 316 316 316 315 314 313 312 311 310 311 310 309 310 310 310 311 312 312 312 312 314 315 316 319 320 320 320 319 318 317 316 314
314 314 313 313 313 313 314 315 316 316 314 315 317 316 315 315 315 315 314 312 312 313 309 308 313 317 316 316 316 315 314 314 314 314 314 314 314 315 315 315 315 316 316 317 317 317 317 317 317 317 317 317 317 316 316 316 315 315 314 313 312 311 310 311 310 309 309 310 310 310 311 312 311 311 314 316 318 319 320 319 318 318 318 317 315 314
314 314 313 312 312 313 314 314 316 317 315 315 315 315 315 315 313 312 311 311 311 313 312 310 313 316 316 315 315 315 314 314 314 313 313 314 315 315 315 317 316 316 317 317 317 318 317 318 318 317 317 316 316 316 316 316 315 315 314 313 312 311 310 311 310 310 309 309 310 310 310 310 311 310 313 316 318 319 319 318 317 318 317 316 314 314
312 313 313 311 310 311 312 313 313 314 314 314 313 314 315 315 314 313 311 309 309 312 314 313 313 314 313 314 314 314 316 317 315 315 314 315 316 315 316 317 317 316 318 318 318 318 318 318 318 317 317 316 316 316 316 315 315 314 313 312 311 311 310 310 310 310 309 309 310 309 309 309 310 311 312 315 317 318 317 317 317 317 316 315 314 315
313 313 312 311 312 311 308 310 312 311 312 314 314 315 314 313 314 313 313 312 312 314 314 314 314 313 313 315 315 314 315 316 315 316 316 316 316 315 317 317 317 318 318 318 318 319 318 318 318 317 317 317 317 316 316 315 314 314 313 312 312 311 310 310 311 310 309 309 310 309 309 310 310 310 312 314 315 316 315 316 317 316 315 314 314 314
312 312 314 309 311 311 308 311 313 311 310 312 313 314 314 314 315 314 313 314 315 315 315 315 314 313 313 315 315 315 315 315 316 316 316 316 316 316 316 317 316 317 318 318 318 318 318 318 318 318 318 318 317 317 316 316 315 314 314 313 312 312 311 310 310 310 309 309 310 310 310 310 310 310 312 313 313 314 315 317 316 315 314 313 313 314
311 312 315 309 308 311 311 312 315 313 311 310 311 312 312 314 315 315 314 313 314 315 315 315 314 313 315 316 314 314 315 315 316 318 319 317 317 317 317 317 316 317 317 318 318 318 318 318 318 318 318 318 318 317 317 317 316 315 314 314 313 312 311 310 310 310 309 309 310 310 310 311 310 310 311 313 313 314 316 317 315 314 313 312 313 314
312 311 313 311 308 311 313 314 315 315 313 312 313 313 313 312 313 313 313 312 313 314 313 314 314 313 314 317 315 314 315 316 317 319 320 319 317 317 317 316 317 317 318 319 318 318 318 318 318 318 318 318 318 317 317 317 317 316 315 315 314 312 312 311 310 310 310 309 309 310 311 311 310 310 311 314 314 314 316 316 315 314 312 312 313 314
312 311 312 314 311 313 315 315 314 315 316 314 314 314 314 314 313 314 315 313 311 313 313 313 314 314 316 318 317 314 316 317 317 318 319 319 317 317 317 316 317 317 318 318 318 318 318 318 318 318 318 318 317 317 317 317 317 317 316 315 314 313 312 312 311 311 310 309 309 310 311 311 310 309 311 314 315 315 315 314 313 313 312 312 313 313
313 312 313 314 315 315 315 311 308 312 316 316 314 314 315 315 315 315 316 314 312 312 313 313 314 315 317 321 319 315 316 315 314 315 317 317 316 316 317 317 317 317 318 318 317 317 318 317 317 318 317 317 317 317 317 317 317 316 316 315 314 314 313 312 311 311 310 309 309 309 310 311 310 310 311 314 315 315 314 312 313 313 312 312 313 312
312 313 313 314 316 316 314 310 308 309 312 314 313 313 313 314 315 315 315 314 314 314 313 314 315 315 319 324 318 313 312 311 311 312 313 314 316 316 316 317 317 318 318 317 317 317 318 318 318 318 318 318 317 317 316 317 316 316 316 316 315 314 313 312 312 311 310 310 309 309 309 310 310 310 311 313 315 314 312 312 313 312 311 312 312 311
313 315 315 314 315 315 314 314 312 311 311 313 314 314 313 314 315 314 313 312 314 316 316 316 316 316 319 322 314 309 311 312 311 311 311 313 316 317 317 316 317 317 317 317 317 318 318 318 317 318 318 318 318 317 317 316 316 316 316 315 315 315 313 312 311 311 311 310 309 308 308 309 310 309 311 313 313 313 312 312 312 311 310 311 312 310
316 318 315 314 316 316 315 316 316 315 313 312 314 315 314 314 314 313 314 314 315 317 318 316 316 315 317 318 314 313 314 314 313 313 312 313 315 316 317 316 316 317 317 316 317 318 318 317 317 318 318 317 318 317 317 317 316 316 316 315 315 315 314 313 312 311 310 310 309 308 308 308 309 309 310 312 313 313 313 313 311 310 309 310 311 311
318 320 316 314 316 316 316 317 317 316 315 314 315 316 315 314 315 314 315 315 316 316 317 316 316 316 316 316 316 316 315 315 315 315 314 314 315 316 316 316 316 316 316 317 317 317 317 316 317 318 318 317 317 317 317 317 316 316 315 315 315 314 314 313 312 311 310 309 309 308 308 308 308 309 310 311 312 312 313 313 312 310 309 309 310 310
318 317 316 317 316 315 316 316 316 317 317 316 316 316 315 314 315 315 315 316 316 316 317 317 317 317 316 315 316 316 316 315 315 315 315 314 314 315 315 316 316 316 317 317 316 316 316 317 318 318 318 318 317 317 317 317 316 316 315 315 315 314 314 313 312 311 310 309 309 309 308 308 308 309 309 310 310 311 312 313 312 311 310 309 310 310
318 315 316 318 315 314 315 315 315 317 317 316 316 316 316 315 314 315 315 315 316 317 317 317 317 318 316 315 315 316 317 316 315 315 315 315 315 315 315 315 316 316 317 316 316 316 317 318 318 318 318 318 318 317 317 317 316 316 316 315 315 314 314 313 312 311 310 309 309 309 308 308 308 308 309 309 309 310 311 312 311 311 311 310 309 309
316 315 316 317 316 316 316 315 315 316 315 315 315 316 316 315 314 314 315 315 316 316 316 316 318 317 316 316 316 316 316 316 315 315 315 315 316 316 316 316 316 317 317 317 317 317 317 317 317 317 318 318 318 318 317 317 316 316 316 316 315 314 314 313 312 311 310 309 308 308 308 308 307 308 308 308 309 310 311 311 309 309 310 310 309 309
314 316 316 315 315 316 315 315 316 316 315 315 315 315 315 315 315 315 315 315 316 316 316 316 317 317 316 316 316 316 316 315 314 314 314 315 316 317 317 317 317 317 318 318 318 317 317 317 317 317 317 317 317 318 318 317 316 316 316 316 315 315 314 313 311 311 310 309 308 308 307 307 307 307 307 308 309 310 310 310 308 308 309 309 309 309
313 315 315 315 315 316 316 316 316 316 315 314 314 315 315 315 315 315 315 315 315 316 317 317 317 316 316 316 316 316 316 314 314 315 314 315 315 316 316 317 317 317 317 318 318 318 318 317 317 317 317 317 317 317 317 317 316 316 316 315 315 315 314 312 311 310 310 308 308 307 307 307 307 307 307 307 307 308 309 309 308 307 308 308 308 308
312 313 314 314 316 317 317 317 316 316 316 315 315 315 315 315 315 315 315 315 315 315 316 316 316 316 315 316 316 316 316 315 315 315 314 315 315 315 316 316 316 316 317 317 318 318 318 317 317 317 317 316 316 316 316 316 316 315 315 315 315 314 313 312 311 310 309 308 307 306 306 306 306 306 306 306 306 306 306 307 307 307 307 307 307 307
312 314 313 314 316 317 317 317 316 316 318 318 318 316 315 316 315 315 315 315 314 314 314 314 315 315 315 316 315 316 316 316 315 315 315 315 315 315 316 316 316 316 316 317 317 317 317 317 317 317 316 316 316 316 316 316 315 315 315 314 314 314 313 313 311 310 309 308 307 306 305 305 305 305 305 305 305 305 305 305 306 306 306 306 306 306
312 312 313 314 315 315 316 316 317 318 319 319 318 316 315 315 315 316 316 315 314 314 314 314 314 314 315 315 316 316 316 316 315 315 314 315 315 316 316 315 316 316 316 316 316 316 316 316 316 316 316 316 315 315 315 315 315 314 314 314 314 313 313 312 311 310 309 307 306 305 305 304 304 304 304 304 304 304 305 305 305 305 305 305 305 305
313 312 313 314 315 315 316 317 318 319 318 318 318 316 315 315 315 316 317 316 315 315 315 315 314 314 314 315 315 315 315 315 314 314 314 314 314 315 315 315 316 316 316 316 316 316 316 316 316 316 316 315 315 315 315 314 314 314 313 313 313 312 312 311 310 309 308 306 305 304 304 303 303 303 302 302 303 303 304 304 305 305 305 305 305 304
313 313 313 314 315 316 316 317 317 318 318 318 318 316 315 315 315 316 317 317 315 315 315 315 314 314 315 315 315 315 315 314 314 314 314 314 314 314 314 315 315 315 315 315 315 316 315 315 315 315 315 315 315 314 314 313 313 313 312 312 312 311 311 310 309 308 306 305 304 303 303 302 302 302 302 301 301 302 303 303 304 304 304 304 304 303
313 313 314 314 315 315 316 316 317 317 317 317 316 316 315 315 315 316 317 317 316 316 316 315 315 315 315 315 315 314 314 313 314 315 314 314 314 314 314 314 314 314 314 314 314 315 314 314 314 314 314 314 314 313 313 312 312 312 311 311 311 310 310 309 308 307 305 304 303 303 302 301 301 301 300 300 300 301 301 302 302 303 303 303 303 302
312 312 312 313 314 315 316 316 317 317 317 317 318 317 315 314 314 315 317 317 316 315 315 315 315 316 315 315 315 314 313 313 314 315 315 314 314 314 314 314 314 314 314 314 314 314 314 314 314 313 313 313 313 313 312 312 311 311 311 310 310 309 309 308 306 305 304 303 303 301 301 300 300 299 299 299 299 299 300 301 301 301 301 301 300 299
312 311 312 313 314 314 315 316 317 316 317 320 321 316 312 312 314 316 318 319 316 315 315 314 314 315 314 314 314 314 313 313 315 315 315 314 314 314 314 314 314 314 314 314 313 313 313 313 313 312 313 312 312 312 311 311 310 310 309 309 309 308 307 306 305 304 303 302 301 300 300 299 298 298 298 298 298 298 298 299 299 299 299 299 298 297
313 312 312 313 314 314 314 315 316 315 317 321 319 312 309 312 315 317 319 318 315 315 315 314 314 314 314 314 313 313 314 314 315 314 313 313 313 313 314 314 314 314 313 313 313 312 312 312 312 312 311 311 310 310 309 309 309 308 308 308 307 306 305 304 304 303 302 301 300 299 299 298 298 297 297 297 297 297 297 297 297 297 297 297 297 297
314 314 314 314 315 314 314 314 315 315 316 318 315 309 309 314 317 317 317 315 315 316 315 314 314 315 315 314 314 314 314 314 314 313 312 312 312 313 313 313 313 313 313 312 312 312 312 312 311 311 310 309 308 307 307 307 307 307 307 306 305 305 304 303 302 302 301 300 299 299 298 298 297 297 297 297 297 297 297 297 296 296 295 296 296 296
313 314 314 314 315 315 315 315 315 316 317 315 313 310 311 314 317 316 314 314 315 315 315 315 315 315 315 315 314 314 314 313 313 312 312 312 312 312 312 312 312 312 312 311 312 311 311 310 310 309 308 307 307 306 306 306 305 305 305 305 304 303 303 302 302 301 300 300 299 299 298 298 297 297 297 297 297 297 296 296 295 295 294 294 294 294
312 313 314 314 315 315 315 316 316 316 315 314 313 313 313 313 314 315 315 315 315 315 315 315 315 315 314 313 313 314 313 312 313 312 312 312 311 311 311 311 311 311 311 311 310 310 310 309 308 307 307 306 306 306 305 305 305 305 305 304 304 303 302 302 301 300 300 299 299 299 298 298 297 297 297 297 296 296 295 294 294 294 293 293 292 292
311 313 312 311 312 313 313 314 313 311 311 311 312 313 313 313 314 314 315 315 314 314 314 313 313 314 313 312 312 312 312 313 312 312 311 311 311 310 310 310 310 310 310 309 309 308 308 307 307 307 306 306 305 305 305 305 305 305 305 305 304 303 303 302 301 300 300 299 298 298 298 297 297 296 296 296 295 295 294 294 293 293 293 293 293 293
309 308 307 309 311 311 312 311 309 308 308 309 311 312 313 313 314 314 313 313 313 313 313 312 312 312 312 312 312 311 311 311 311 311 311 310 310 310 310 310 310 310 309 308 307 307 306 306 305 306 306 306 306 306 306 305 304 305 306 305 305 304 304 303 303 302 301 300 299 298 298 298 297 296 296 295 295 295 294 294 294 294 294 294 295 294
307 305 305 308 310 311 312 312 309 307 307 307 308 310 310 311 312 312 311 311 311 312 313 312 312 311 311 310 310 310 309 309 309 310 310 310 310 311 310 310 309 308 308 307 306 306 306 305 305 305 306 307 307 306 306 306 304 305 306 306 306 305 304 304 304 303 302 301 300 300 299 299 299 298 297 297 296 296 296 296 296 296 295 295 295 295
306 305 305 306 307 308 310 309 307 306 306 306 308 309 309 309 309 308 308 308 309 310 312 312 312 311 310 310 310 309 308 308 309 310 310 310 310 310 310 309 308 308 307 306 306 306 306 305 305 306 307 307 307 307 306 306 305 305 305 305 305 304 304 303 303 302 302 301 301 301 300 299 299 299 299 298 297 297 297 296 296 296 295 294 293 293
305 304 304 305 305 306 307 306 306 306 306 306 307 309 309 310 309 308 308 307 308 309 310 311 311 311 311 311 310 309 309 309 310 311 310 310 310 310 309 308 307 307 306 306 305 305 305 304 305 306 307 307 307 307 306 306 305 304 304 304 304 303 302 302 301 301 301 301 301 301 300 300 299 299 298 298 297 296 296 295 294 293 293 292 291 291
303 303 303 304 304 304 305 306 306 306 307 307 307 309 310 310 309 309 309 309 309 310 310 309 310 311 311 311 311 310 310 310 311 311 310 309 309 308 308 308 307 306 306 305 305 305 304 304 305 307 307 307 307 306 305 304 303 303 302 302 302 301 301 301 301 300 300 300 300 299 299 298 297 297 296 296 295 295 294 293 292 292 291 291 291 291
301 302 303 304 304 304 305 305 305 306 306 307 307 308 309 309 309 309 309 310 310 310 310 309 309 310 310 310 310 309 309 310 310 311 310 309 308 307 307 307 307 306 306 305 305 305 305 305 306 306 306 306 305 304 303 303 302 301 300 300 299 299 299 298 298 298 297 297 296 296 295 295 295 294 294 294 293 293 292 292 291 291 291 290 290 290
Wind_Speed
2 2 4 4 3 5 6 3 4 5 4 5 3 1 2 3 3 2 1 2 1 5 7 7 11 15 14 12 15 18 16 17 19 20 25 31 34 36 36 36 36 36 35 33 32 31 29 28 27 27 27 28 29 30 31 32 32 32 32 31 31 30 30 30 29 28 27 27 27 27 27 28 29 29 26 25 27 28 26 25 24 25 25 25 24 24
2 4 5 2 2 2 4 5 6 5 3 3 2 1 2 4 4 1 2 1 1 3 5 3 8 16 15 13 15 16 14 16 19 20 22 26 31 35 38 39 39 38 37 34 33 33 32 31 29 29 29 30 31 31 32 33 33 33 33 32 31 30 30 30 29 28 28 28 27 25 25 26 26 27 25 21 24 28 24 21 22 24 26 26 24 25
3 6 3 5 6 7 6 5 5 3 2 2 1 1 3 3 2 0 2 2 1 3 5 3 7 14 16 15 17 18 18 21 24 24 23 24 27 33 37 39 40 39 39 36 35 35 34 33 32 32 32 32 32 32 33 34 34 34 33 32 31 30 30 30 30 29 29 28 27 25 23 22 23 25 25 22 24 29 27 23 25 27 27 26 25 25
4 4 2 7 8 8 6 3 4 3 2 2 2 3 2 0 1 2 1 2 2 2 5 6 7 12 15 14 16 19 20 21 24 26 27 29 33 37 39 39 38 38 39 36 33 33 32 31 31 31 31 31 32 33 34 35 35 35 33 33 32 31 30 30 30 30 30 29 27 26 23 23 25 26 26 26 26 28 28 26 27 29 28 27 28 25
2 1 4 7 5 6 6 5 6 5 3 3 4 6 4 2 2 2 2 1 3 2 2 6 8 8 8 9 11 10 8 12 17 19 23 28 31 33 33 33 33 33 33 31 29 29 29 28 27 27 26 27 29 31 33 34 34 34 34 34 33 32 31 31 31 31 31 30 29 27 26 27 29 29 28 30 31 30 31 30 30 31 28 25 26 23
2 4 8 7 3 4 6 5 7 6 4 3 5 8 9 4 1 1 2 3 3 2 1 3 6 4 2 6 10 6 4 8 9 10 17 23 25 28 31 33 32 31 31 30 29 28 27 27 26 26 25 24 25 26 28 30 32 33 34 35 35 34 33 31 31 31 31 31 30 29 29 29 30 31 30 31 32 31 31 32 32 31 27 23 23 21
1 5 6 5 6 5 4 4 5 6 4 2 2 5 7 2 1 1 1 2 4 2 1 1 5 6 4 9 14 9 10 13 8 9 17 22 26 31 34 35 33 30 30 29 27 25 24 24 24 24 24 23 22 22 24 27 29 31 33 34 35 34 33 32 31 32 32 32 31 30 29 28 29 30 30 29 29 28 28 31 33 29 25 23 22 22
4 6 3 4 6 6 5 4 5 8 6 1 1 1 4 4 4 4 2 3 3 3 2 3 3 7 7 9 10 8 10 14 12 12 14 17 23 27 26 26 24 23 23 22 21 19 18 18 18 18 19 19 19 20 22 24 26 29 31 33 34 33 33 32 32 32 32 32 31 30 30 28 28 29 29 28 27 27 27 30 31 29 27 26 25 25
3 6 7 8 6 5 5 0 5 11 5 1 1 1 3 3 3 3 2 2 1 4 4 4 4 6 8 5 2 1 6 10 13 14 11 10 13 15 13 12 11 11 12 13 12 10 8 7 8 10 12 14 16 18 21 22 24 26 29 31 32 33 33 33 32 32 32 32 31 30 30 29 28 28 30 29 28 28 29 30 30 30 28 27 25 26
2 2 6 7 6 5 3 4 1 8 3 3 6 5 6 5 4 3 0 1 1 5 5 6 7 5 9 5 6 3 4 8 11 10 6 7 8 8 6 4 4 4 5 6 6 5 3 2 5 7 8 10 13 16 19 21 23 25 27 29 31 32 33 32 31 31 32 32 31 31 31 30 28 30 31 31 30 30 31 30 30 30 28 25 25 27
2 2 1 3 3 3 6 6 3 0 5 10 8 5 7 4 3 2 1 1 1 6 3 8 10 5 8 5 7 5 2 4 7 7 5 5 5 6 4 2 2 3 4 5 5 4 3 5 7 8 9 9 11 13 16 18 21 23 26 28 30 31 31 30 30 31 32 32 32 32 32 31 31 32 33 33 32 32 32 31 31 31 27 25 26 28
1 1 1 2 4 7 8 6 6 4 5 6 4 4 4 2 1 1 1 1 4 6 1 3 4 5 8 6 4 2 2 3 5 6 7 5 4 9 9 6 6 5 6 7 7 7 8 10 12 11 12 12 12 13 14 16 18 21 24 27 29 30 31 30 30 31 32 32 33 32 32 33 34 35 33 31 31 31 31 31 32 30 26 25 25 26
2 3 2 3 6 8 7 6 6 3 2 2 3 6 4 2 2 3 3 3 5 4 2 2 1 4 11 11 6 9 12 12 10 12 15 13 13 19 17 15 14 12 12 12 12 13 14 16 15 13 14 14 15 15 15 16 18 20 22 25 28 30 31 29 29 31 32 33 33 32 32 34 36 36 33 31 30 30 30 31 32 28 26 27 25 26
3 1 3 4 4 9 10 7 6 4 5 7 7 8 6 4 4 5 4 1 4 2 2 2 1 4 10 10 9 14 16 14 11 16 23 24 26 30 25 24 24 22 22 21 19 19 19 18 14 12 12 13 14 15 16 17 17 18 20 23 25 28 30 29 28 31 33 34 34 33 34 34 34 34 33 31 30 30 31 31 28 27 28 28 25 25
6 4 7 8 5 12 13 6 5 6 7 8 4 3 5 5 5 5 3 2 3 1 2 1 2 6 6 2 3 9 12 15 15 15 19 24 30 32 29 30 32 29 26 24 22 20 17 14 12 11 11 12 13 14 14 15 16 17 19 21 23 27 29 29 28 30 33 35 34 33 33 33 33 32 33 33 31 31 31 29 26 27 29 28 24 23
6 5 3 2 3 13 12 3 4 6 5 3 1 1 5 4 3 1 1 1 1 1 2 3 4 6 5 6 8 10 10 12 13 12 14 20 25 26 27 30 31 27 21 19 17 15 12 11 10 11 11 11 12 11 13 14 14 16 17 19 21 24 28 29 28 29 32 34 33 32 32 32 32 32 33 33 33 33 33 29 27 29 29 25 22 22
4 3 2 2 0 7 5 1 4 3 3 4 3 5 3 1 2 2 1 2 2 4 4 4 6 7 6 10 10 12 13 10 8 8 12 18 21 20 24 30 29 20 13 11 10 9 9 9 9 9 8 8 8 9 10 11 12 13 15 17 20 22 26 29 27 27 31 33 32 32 32 31 32 32 33 33 34 34 33 31 29 28 26 23 22 24
3 1 1 1 1 3 1 2 2 2 1 3 5 5 2 2 1 2 4 1 3 7 4 4 8 8 6 6 2 3 9 10 10 10 12 17 21 21 29 34 26 16 9 7 8 10 10 8 6 4 3 3 4 5 7 8 9 11 14 16 18 20 24 26 26 25 29 32 32 31 31 30 30 31 32 32 32 32 31 30 30 27 24 23 23 26
2 3 1 1 1 1 2 1 3 1 2 1 1 2 2 2 4 4 4 4 5 6 3 4 7 6 8 8 4 5 8 9 11 11 10 14 17 22 33 34 25 19 14 9 10 12 10 9 8 6 4 2 1 2 4 6 8 10 12 14 16 19 21 24 24 25 27 31 33 31 30 30 29 29 30 29 30 30 30 30 30 25 23 23 25 28
3 5 3 1 2 1 2 5 7 5 2 3 1 2 0 3 3 3 3 2 5 6 4 4 4 5 8 7 6 11 12 11 10 9 8 11 15 23 31 31 27 22 15 12 13 13 12 12 9 7 5 4 3 2 3 4 6 8 10 12 15 18 20 23 24 25 27 30 32 32 31 30 29 28 29 28 29 30 31 32 29 24 22 24 26 30
3 4 3 2 1 2 4 6 8 9 8 5 6 6 4 2 0 2 2 1 2 4 4 4 5 8 6 4 7 11 11 10 11 8 6 10 18 24 25 26 22 14 13 16 15 15 14 12 9 7 5 3 3 3 3 4 5 7 9 11 14 17 20 23 24 25 25 28 31 32 31 30 28 28 29 30 31 32 32 32 29 24 23 25 28 31
4 4 4 3 3 6 5 1 2 5 7 7 8 9 10 8 5 4 5 2 1 3 2 2 6 9 5 3 6 9 7 7 9 8 7 13 22 21 17 17 12 12 18 19 17 16 14 11 9 6 4 3 3 3 5 7 7 8 9 11 13 16 19 22 24 24 24 25 29 32 32 30 29 29 29 32 34 34 32 31 29 27 26 28 29 31
4 2 4 4 4 4 1 3 1 3 2 3 4 5 6 6 7 7 6 3 2 2 1 0 5 10 5 3 3 5 4 5 7 8 11 17 22 18 13 11 11 16 20 20 19 16 12 10 9 5 3 4 5 6 8 10 10 10 11 12 13 15 17 20 22 23 22 24 27 31 32 32 31 31 31 32 34 33 32 32 30 28 28 30 30 30
4 1 4 4 2 1 2 2 1 2 0 4 4 2 2 5 7 5 1 1 3 4 3 3 6 10 5 2 2 4 4 7 10 11 14 18 22 20 15 12 14 18 21 21 17 13 10 10 9 6 3 4 7 10 11 11 12 13 12 12 13 15 17 19 21 22 23 24 26 29 32 33 33 33 33 34 34 32 32 31 29 27 28 30 30 29
7 2 4 5 4 3 3 3 3 2 3 5 4 4 7 8 5 2 1 2 3 6 9 8 8 10 4 2 1 4 4 7 11 14 15 18 23 22 18 15 16 19 21 19 16 13 12 12 10 5 4 5 8 12 13 13 14 14 14 14 14 15 17 19 21 22 23 25 26 28 32 34 34 34 35 35 35 34 33 32 30 29 29 31 32 30
7 2 5 7 7 8 7 5 4 4 4 3 4 7 10 11 10 5 3 5 6 9 11 9 9 13 9 3 3 5 5 5 10 14 17 20 24 23 20 19 19 20 22 19 16 15 15 14 10 6 7 7 9 12 14 15 15 15 16 16 16 16 18 20 21 22 23 25 26 28 31 34 35 35 35 35 35 34 35 34 32 29 30 32 32 31
2 1 6 9 9 10 10 5 1 4 6 7 9 9 10 12 14 10 5 7 10 10 11 11 13 18 19 11 7 6 5 6 8 10 14 19 24 24 23 22 20 19 21 19 17 18 17 13 10 10 12 12 11 12 14 16 16 17 18 18 17 17 18 20 22 23 24 24 26 28 30 32 34 34 34 34 34 33 34 35 32 29 30 31 31 31
2 3 9 10 11 13 13 7 2 4 7 10 12 12 12 12 14 12 11 13 13 10 12 14 14 17 22 20 15 10 6 6 6 7 13 18 20 20 21 21 19 18 20 21 21 19 15 13 13 15 18 19 17 15 15 17 18 18 19 19 19 19 20 21 22 24 24 24 26 28 29 29 31 33 32 33 33 33 34 35 32 30 31 32 32 31
2 5 9 8 12 16 17 11 4 5 6 7 10 12 12 13 15 15 17 20 17 13 13 14 14 17 20 22 21 14 8 8 9 13 18 19 17 17 17 18 19 20 22 24 22 18 16 16 19 19 20 24 25 23 20 19 19 19 20 20 20 19 20 21 23 24 25 25 26 28 28 27 28 30 31 31 32 33 34 34 32 31 32 33 33 32
3 4 9 9 10 15 18 16 11 10 9 9 10 10 9 13 16 18 20 21 20 17 15 16 19 21 22 22 19 13 12 13 17 20 21 20 19 19 20 22 24 24 24 24 23 21 21 23 24 23 22 24 28 29 28 25 21 20 20 20 20 20 20 22 23 24 25 25 25 27 27 27 28 29 31 32 33 33 34 33 32 33 33 33 33 32
5 5 8 8 7 12 17 18 17 14 14 15 14 9 9 13 17 20 21 17 15 17 19 21 22 21 21 20 17 17 17 15 15 18 22 25 26 25 26 28 28 27 27 28 28 28 30 30 29 28 28 26 26 29 32 30 25 22 21 20 20 20 20 23 24 24 24 24 24 25 26 27 29 30 31 32 34 34 34 33 33 34 33 32 33 34
6 5 4 6 7 10 13 16 18 15 11 12 14 14 16 18 17 16 15 14 15 18 19 18 16 16 18 14 11 16 15 11 13 17 23 30 34 34 36 37 36 35 35 36 36 36 38 39 38 39 35 29 25 27 30 30 28 26 24 22 21 21 21 23 23 24 24 24 24 24 26 28 29 30 31 31 32 33 33 33 33 33 34 34 34 34
6 5 4 6 6 9 12 13 12 11 7 7 13 19 22 21 17 12 12 17 20 16 14 14 12 15 18 13 11 14 10 8 14 20 25 32 35 37 42 45 44 42 40 41 42 43 45 46 46 44 37 30 27 27 28 29 30 29 26 24 22 22 22 23 23 23 24 24 24 25 26 28 28 29 30 31 30 30 31 33 34 34 34 34 33 33
6 6 5 5 4 7 11 8 5 8 9 8 12 19 21 19 18 18 18 22 20 14 12 14 14 17 20 17 16 16 12 13 22 28 31 35 36 37 39 42 42 41 42 45 47 48 49 49 46 41 36 32 30 28 28 30 32 32 29 26 24 23 23 24 24 24 24 24 24 25 25 26 27 28 29 30 30 30 29 30 31 31 32 33 33 33
7 8 7 5 4 6 8 6 6 9 10 9 12 16 17 18 21 22 21 21 20 17 16 18 22 24 25 22 22 23 24 27 31 34 37 38 38 38 36 36 39 42 46 49 49 48 48 44 41 37 34 32 30 30 31 32 33 33 30 27 25 24 24 25 24 24 24 23 23 24 24 25 26 27 28 28 30 31 30 29 28 28 29 31 31 31
9 8 6 6 7 6 6 9 9 6 3 5 10 10 10 13 16 16 16 18 21 20 18 20 25 26 26 27 30 33 35 34 33 39 44 40 38 39 38 40 43 45 47 47 45 44 41 37 35 34 33 33 34 34 34 33 33 32 30 27 25 24 24 24 24 23 23 22 22 22 23 24 25 25 26 26 28 29 31 31 30 29 28 28 29 28
12 9 6 7 8 7 8 11 10 9 8 8 11 11 8 9 10 10 10 15 17 19 20 20 24 26 25 27 32 35 33 24 22 35 45 40 38 42 44 47 47 44 42 43 42 41 37 34 34 34 34 35 35 33 32 31 31 30 28 25 23 23 23 23 23 23 21 20 19 19 20 21 21 22 24 25 26 27 28 29 30 30 29 28 27 26
13 11 8 9 8 7 9 10 9 11 10 11 17 18 11 11 12 10 9 12 12 16 21 21 23 26 21 21 28 28 21 11 10 23 34 34 36 42 43 42 41 39 39 41 41 40 37 35 34 34 32 31 29 28 27 27 27 26 24 22 21 22 22 22 21 20 19 17 17 16 17 17 18 20 21 22 23 24 25 26 27 28 27 27 26 25
15 11 10 10 8 8 10 9 8 10 8 9 15 15 11 15 13 7 5 10 13 19 23 19 20 22 18 19 25 20 9 5 9 21 31 29 27 30 31 31 31 31 34 37 38 37 35 33 31 28 26 24 23 23 23 23 23 23 21 20 20 20 20 19 18 17 16 15 15 15 15 15 16 17 17 18 19 20 21 23 23 23 23 23 23 22
13 9 9 11 10 12 13 8 7 7 5 7 10 7 9 18 16 8 7 11 10 15 20 20 19 20 22 27 25 13 7 10 15 21 25 20 16 19 22 24 25 25 28 31 32 31 29 27 24 22 20 20 20 20 20 20 20 20 19 19 18 18 17 17 16 15 15 15 15 16 15 15 14 14 14 14 15 15 17 18 19 19 19 17 17 17
9 8 9 10 9 11 14 12 9 6 4 7 9 7 14 17 13 9 11 8 5 8 14 21 24 25 29 30 21 13 19 31 34 29 20 12 12 14 16 18 20 23 25 26 25 24 23 21 20 19 18 18 18 17 17 17 17 17 17 17 17 17 17 17 16 16 17 16 17 16 16 15 14 13 13 13 13 13 13 14 14 14 14 13 13 13
7 6 7 9 9 9 10 10 9 6 6 9 10 10 16 13 7 10 8 3 5 9 11 18 24 26 29 31 27 27 33 40 40 35 28 23 21 19 17 17 20 22 23 23 22 22 21 20 19 18 18 17 16 15 15 15 16 16 17 17 17 17 17 17 17 17 17 17 17 17 17 16 16 15 14 14 13 13 12 12 12 12 12 13 13 14
5 5 6 7 7 7 7 8 8 7 8 15 11 5 9 10 11 12 9 6 10 14 16 19 22 24 26 30 32 33 32 30 30 32 32 32 28 23 20 19 19 21 21 21 21 21 20 19 18 17 17 16 15 15 15 15 16 16 16 17 17 18 18 18 18 18 18 18 18 18 18 18 18 18 17 16 16 16 15 15 15 14 14 14 14 14
3 5 6 6 6 7 8 8 5 3 6 19 17 6 12 23 21 13 9 10 13 16 18 21 24 25 25 24 24 25 24 25 27 28 28 28 26 23 21 20 20 21 21 20 20 19 19 18 17 17 17 16 16 16 16 16 17 17 17 17 18 18 18 18 19 19 19 20 20 20 20 20 20 19 19 19 18 18 17 16 16 16 16 16 16 15
5 4 3 4 5 6 6 6 4 5 3 18 24 17 16 27 30 24 18 19 20 19 19 22 22 19 15 13 15 18 20 22 24 25 25 24 23 22 21 21 22 21 20 19 19 19 19 18 18 18 19 18 18 19 19 18 18 18 18 18 18 18 18 19 19 20 20 21 21 22 22 21 21 21 20 20 19 18 18 18 17 17 17 17 16 15
4 3 2 2 3 5 9 13 13 10 9 11 22 23 20 23 30 32 30 28 24 20 18 16 12 8 8 10 13 15 17 20 22 24 24 22 20 20 21 22 21 20 20 20 20 20 20 20 19 20 21 21 21 21 20 20 19 18 17 18 19 19 19 19 20 21 22 22 22 23 23 22 22 22 21 20 19 18 17 17 17 17 16 15 15 14
3 6 4 3 4 4 6 9 10 12 17 19 20 23 24 24 26 27 28 27 24 22 17 13 10 10 14 18 21 21 22 25 27 26 24 22 19 19 20 21 20 21 21 21 21 22 22 22 22 22 22 22 22 22 21 21 20 18 18 19 19 19 20 20 21 21 22 23 23 22 22 22 22 22 21 20 19 18 17 16 15 14 13 12 11 10
3 8 7 4 5 4 5 10 18 24 26 26 26 27 29 27 24 23 24 23 22 23 23 19 17 19 23 27 29 28 28 29 29 27 25 23 21 20 21 21 21 22 22 22 23 23 23 23 24 24 23 22 22 21 21 21 21 20 19 20 20 21 21 21 21 21 21 21 21 21 21 21 20 20 20 19 18 17 16 15 14 12 11 10 9 9
8 8 6 5 7 8 8 12 19 22 20 20 23 25 26 26 24 24 25 23 21 24 26 25 26 29 32 34 34 32 30 29 29 28 26 25 24 22 21 21 22 23 23 24 24 24 24 24 24 24 22 21 21 21 20 20 20 20 20 20 21 22 22 21 21 21 20 20 20 20 20 19 18 17 17 17 17 16 15 14 13 13 13 12 12 12
8 6 6 6 7 8 7 10 14 11 9 15 23 24 24 25 26 28 29 27 27 30 31 31 32 35 37 38 37 34 32 31 31 28 25 24 24 23 22 22 23 24 24 24 25 25 25 25 25 23 21 20 20 20 20 20 20 20 20 21 21 21 21 21 21 21 20 20 20 19 19 19 19 18 17 17 17 18 18 17 17 16 16 16 15 14
12 9 10 8 7 9 14 20 21 12 10 20 29 27 23 22 24 26 28 28 29 32 34 34 35 37 40 41 38 34 32 31 30 27 24 23 22 22 23 24 25 25 26 26 26 26 26 27 25 23 21 20 21 21 21 21 21 21 21 21 21 20 20 20 20 20 20 20 19 19 19 19 19 19 19 18 18 18 18 18 19 18 17 16 15 15
Wind_Direction
134 178 205 213 205 193 185 153 96 85 82 101 119 177 199 255 263 194 124 46 29 265 257 249 266 274 271 267 266 267 267 263 260 261 264 268 271 271 271 270 268 266 265 265 267 267 264 260 257 256 254 251 248 246 246 247 248 248 248 249 249 249 247 244 241 240 238 235 232 226 219 217 220 222 226 225 220 218 216 215 214 215 221 231 238 230
157 217 226 203 87 112 129 112 110 111 91 106 163 223 228 244 256 140 76 28 102 261 268 272 285 279 276 273 269 267 262 258 255 251 256 262 267 269 270 270 270 269 268 267 267 266 264 263 260 257 254 252 250 249 248 248 248 249 248 248 248 248 247 245 242 240 238 237 234 230 224 221 220 218 219 220 217 215 214 220 224 223 226 232 235 229
201 229 212 114 102 93 96 124 140 132 121 136 168 238 254 249 264 180 78 35 146 238 277 317 297 282 280 278 270 262 254 257 258 255 257 262 264 267 269 271 271 272 272 270 268 266 265 264 263 261 257 254 252 251 249 248 248 249 249 248 248 248 246 244 242 239 238 236 233 230 226 224 220 215 218 221 217 216 221 229 226 222 224 227 229 230
202 239 132 125 135 121 103 138 147 135 177 196 188 219 247 339 276 251 83 73 171 237 296 313 297 282 279 275 267 258 250 255 262 260 262 263 264 265 267 270 270 272 274 273 272 271 269 268 266 264 262 258 253 250 248 247 247 248 249 248 247 247 246 244 242 238 237 235 230 227 221 217 217 218 223 222 217 217 219 221 221 220 219 219 222 228
205 31 112 131 142 137 127 152 171 181 204 212 214 224 240 229 225 259 10 356 217 207 283 298 288 270 263 265 268 264 251 257 262 261 263 262 262 266 268 268 267 268 270 271 273 273 273 272 271 269 265 259 254 250 250 249 249 249 249 248 248 247 246 243 241 238 236 233 229 225 217 212 213 217 220 218 217 218 217 218 218 216 213 213 217 226
225 115 136 133 117 140 142 164 190 198 204 219 220 223 238 252 215 229 354 323 264 225 158 304 285 261 227 263 265 266 274 263 243 240 258 261 263 265 267 267 267 267 268 270 271 272 274 273 272 270 265 260 255 251 249 248 248 248 247 247 246 246 245 243 240 237 236 233 230 227 221 217 214 214 216 217 219 220 219 219 216 213 214 217 221 228
174 134 142 139 145 152 161 189 193 192 208 227 218 223 233 246 92 204 265 283 277 288 144 234 276 278 288 273 266 262 271 274 256 242 254 259 263 265 266 269 269 268 269 270 272 273 273 272 270 268 265 261 257 252 249 247 246 246 245 245 245 245 245 243 241 238 235 232 230 228 225 223 219 217 219 218 218 219 219 218 216 218 224 228 229 228
137 152 156 144 150 158 181 198 184 186 199 196 62 190 188 179 199 208 205 239 285 327 255 185 236 277 276 265 267 262 265 275 274 263 255 253 262 268 271 273 271 269 268 268 269 268 267 268 268 266 262 258 254 251 248 246 245 245 245 245 245 245 244 242 240 237 235 232 229 226 224 223 221 222 223 219 218 221 221 220 222 230 233 231 229 224
135 174 183 167 165 184 190 164 165 180 194 3 80 100 134 150 169 157 176 227 331 322 266 172 166 266 270 234 201 254 256 270 272 267 263 259 267 275 280 280 273 265 260 257 255 251 249 260 270 266 258 249 244 243 242 242 243 245 245 245 245 244 242 240 238 235 234 232 229 225 223 222 220 221 223 221 222 224 222 223 229 232 228 225 224 223
43 192 190 174 180 192 154 36 174 192 179 132 140 100 91 85 77 97 219 174 105 284 261 166 170 257 286 232 159 158 237 254 264 267 273 279 283 288 291 290 272 245 231 222 210 201 211 277 291 279 266 253 245 241 241 241 241 242 244 245 245 244 242 239 237 235 233 231 227 223 223 223 219 216 217 221 225 226 223 224 227 224 222 224 228 230
44 64 152 197 203 140 112 69 19 11 124 141 145 104 95 85 64 79 34 65 237 266 223 156 178 226 294 263 161 160 201 229 258 273 272 260 266 282 295 311 284 231 206 198 190 201 259 288 287 279 274 267 258 251 248 246 242 240 241 242 244 245 243 240 236 234 232 229 226 222 222 223 221 219 219 224 227 226 226 226 223 220 224 230 232 235
70 149 153 196 153 119 112 86 50 59 130 150 152 134 128 123 131 131 115 147 234 250 116 115 186 214 255 253 136 103 317 263 260 278 278 266 255 269 276 283 283 261 237 226 224 243 268 281 282 273 266 262 259 258 256 253 249 244 240 241 242 244 244 240 235 233 231 228 227 224 220 220 222 223 224 227 226 226 229 229 222 222 228 232 233 234
196 202 124 127 154 158 148 103 78 74 199 219 160 162 191 199 195 226 201 179 232 237 47 9 289 225 244 259 290 294 280 262 242 245 259 268 271 273 274 273 271 264 258 252 250 264 280 286 284 273 263 256 253 254 255 254 252 248 244 241 241 242 244 241 235 232 230 228 227 225 222 221 222 223 223 225 225 227 231 227 223 228 234 234 236 235
205 232 142 152 175 192 188 156 152 178 194 199 178 174 198 190 206 231 194 205 266 234 44 340 233 244 262 276 280 269 269 272 260 250 254 260 266 270 271 270 269 265 264 262 265 278 287 287 281 271 260 251 248 250 251 252 252 250 248 244 241 241 243 243 236 231 230 228 227 225 224 225 224 220 218 219 222 227 230 225 226 234 237 237 240 243
217 250 178 172 162 181 198 202 163 149 170 196 189 179 206 196 210 229 198 221 253 125 75 323 217 227 246 314 295 260 277 290 286 272 261 260 262 265 269 270 269 267 267 268 274 283 283 276 266 255 248 245 246 248 249 251 250 249 248 245 242 240 242 244 237 231 230 229 227 226 226 228 226 222 218 218 222 226 226 225 230 234 234 237 243 247
225 266 167 141 132 167 186 202 119 122 160 193 70 199 231 220 197 242 313 180 79 46 186 201 244 240 248 306 290 269 280 287 284 281 273 265 262 264 270 271 271 271 269 269 274 275 264 254 244 237 236 239 244 248 251 254 252 251 250 247 245 242 243 246 241 234 232 231 229 227 227 228 226 223 218 218 221 222 222 227 231 230 231 234 236 239
215 272 68 34 63 173 188 138 138 162 176 162 171 200 225 331 106 155 234 82 86 266 236 190 246 264 281 288 267 248 256 263 272 276 270 269 270 272 272 270 272 273 264 257 257 242 230 230 230 231 233 238 247 253 256 259 257 256 254 250 248 245 244 246 245 238 234 233 231 228 229 228 225 224 220 218 220 222 225 230 228 224 225 227 226 229
213 264 63 76 196 197 336 44 103 356 60 141 190 190 139 22 23 202 234 183 183 247 249 193 234 255 265 273 268 233 251 254 261 263 260 266 269 268 266 268 272 269 254 240 219 205 204 206 203 206 213 233 259 267 268 265 259 255 253 250 249 248 248 250 250 243 236 234 233 231 230 228 225 224 221 220 222 224 229 229 222 219 223 222 222 224
204 244 244 55 284 118 69 180 174 62 38 45 225 167 121 224 211 186 214 223 215 233 242 219 239 248 237 244 262 255 243 243 251 252 252 259 258 258 262 265 269 266 255 229 198 191 181 168 156 143 139 142 190 277 283 276 270 263 256 253 249 248 249 251 251 246 239 236 233 232 232 229 226 224 221 222 222 223 229 226 218 221 226 225 224 224
170 231 232 66 316 22 112 211 202 168 104 25 335 173 272 262 223 190 188 216 228 227 238 248 257 251 232 221 230 242 242 235 235 239 240 246 251 257 260 261 267 268 247 202 186 181 166 157 153 150 155 160 174 220 269 275 281 277 267 262 255 249 248 248 248 245 240 236 234 233 232 230 228 224 222 222 222 225 229 223 217 224 232 229 226 223
142 225 231 92 320 222 186 207 205 182 166 174 195 190 193 202 275 274 229 153 246 235 235 250 263 264 249 180 190 227 238 228 224 231 236 243 251 257 262 266 267 250 197 180 179 172 165 163 163 167 177 195 210 236 264 270 276 276 272 269 262 256 252 249 249 247 242 238 234 233 233 230 229 226 223 222 224 227 227 222 222 230 233 229 226 224
175 207 209 162 182 206 199 205 234 208 185 188 196 195 199 188 163 220 220 169 254 255 230 232 264 268 257 155 194 221 228 226 223 223 231 246 249 253 268 277 254 190 175 182 180 171 167 169 172 179 195 219 243 277 286 278 272 268 268 267 262 260 257 254 253 251 246 241 236 233 232 230 229 226 224 225 226 225 224 226 230 232 230 228 225 225
154 176 214 205 201 204 169 51 357 294 276 245 232 209 210 197 186 212 220 178 169 220 267 316 267 267 256 140 196 223 228 241 231 223 231 243 252 260 269 260 212 183 185 190 185 174 169 173 177 181 206 238 264 287 292 282 272 268 266 263 262 262 259 258 258 255 249 243 239 235 232 229 228 226 224 224 225 223 224 230 231 226 226 227 223 224
129 173 225 231 234 150 61 77 92 14 335 247 249 204 203 223 215 224 250 191 186 184 198 218 243 260 263 138 227 263 275 265 248 238 238 243 253 263 260 236 206 196 195 193 186 176 175 185 184 181 223 271 285 292 293 285 273 268 268 267 266 265 260 257 257 256 251 245 241 237 232 229 226 225 223 221 223 225 227 230 231 228 228 228 224 225
161 193 212 223 243 219 199 203 200 172 183 232 235 189 208 218 196 105 63 233 232 203 208 224 240 253 256 109 214 256 254 263 253 244 247 251 253 254 245 226 212 209 205 194 184 182 192 197 191 195 244 279 294 293 289 285 277 269 268 267 266 265 262 257 256 256 253 247 243 238 233 230 226 225 223 221 223 227 227 227 230 235 235 232 228 225
169 204 182 200 229 225 219 220 211 178 161 213 233 199 208 203 178 173 202 215 229 220 215 226 244 256 255 167 176 229 229 255 258 248 247 252 254 251 237 224 218 216 212 200 190 198 206 203 204 230 255 270 292 291 284 283 280 271 266 266 265 265 263 261 258 255 252 249 245 241 235 231 228 226 223 223 224 228 229 226 226 233 237 237 232 223
144 286 199 213 227 228 241 254 146 125 151 194 217 200 199 200 192 196 213 216 225 233 235 229 232 254 263 250 220 212 210 236 252 248 242 244 249 245 232 226 227 222 215 208 206 213 215 215 236 264 266 269 285 290 281 278 278 274 269 265 265 265 262 261 259 255 251 249 247 244 239 234 231 228 225 223 225 228 230 228 226 231 236 238 236 226
97 230 219 236 243 250 270 281 122 147 190 204 212 204 196 197 195 199 217 224 221 229 243 237 227 245 262 262 250 234 220 230 241 252 250 246 248 247 235 230 232 227 222 222 224 228 230 240 261 275 277 278 283 289 283 274 271 272 270 266 264 263 261 260 258 255 252 249 246 245 243 238 234 231 226 224 224 227 230 229 228 232 233 233 237 234
127 224 220 230 245 254 269 273 213 204 232 219 214 213 199 191 193 202 219 227 224 225 243 252 247 246 255 261 258 247 232 228 234 249 255 253 257 265 259 248 240 233 231 234 237 241 247 258 266 271 275 276 279 287 290 280 270 269 268 266 265 263 261 259 257 255 253 249 246 245 244 241 236 232 228 225 225 226 229 231 232 235 233 230 233 237
131 231 228 222 241 251 257 261 246 232 249 251 236 226 207 197 197 204 218 225 226 231 244 256 257 254 254 257 261 263 258 247 242 245 250 253 261 270 272 263 253 244 239 240 243 246 253 261 265 268 269 266 268 278 287 286 278 270 266 265 265 265 262 258 256 255 253 251 247 245 243 241 238 233 228 225 226 227 229 232 235 237 236 231 230 232
173 214 218 206 236 252 249 253 250 240 243 251 251 242 224 219 214 217 225 228 230 237 240 245 253 258 258 256 261 271 267 251 238 236 238 244 249 255 260 260 258 255 248 243 244 250 259 263 266 274 276 267 262 271 279 282 281 272 265 263 265 266 262 256 254 253 252 251 248 244 242 240 238 235 231 227 227 229 230 232 235 238 239 236 231 229
188 206 190 178 221 246 240 242 246 244 239 246 255 246 232 231 230 227 228 228 230 236 238 241 247 255 260 257 256 263 257 233 226 227 231 240 244 246 250 253 255 256 253 249 249 254 262 267 270 276 277 269 265 268 270 275 276 270 263 262 263 264 261 254 250 249 249 248 245 241 238 238 237 235 233 230 229 230 232 233 235 237 239 240 236 231
186 196 187 186 213 243 241 234 237 243 234 227 239 237 231 231 233 233 232 231 230 230 235 241 239 246 259 263 255 254 240 214 229 230 230 239 243 244 246 247 250 252 251 252 253 255 261 267 270 273 273 269 266 265 264 269 270 264 260 260 259 257 253 247 243 243 244 244 243 240 237 236 236 235 233 231 231 231 232 234 236 236 237 241 242 238
183 199 209 200 211 247 246 232 209 231 236 226 227 230 229 228 227 227 230 231 228 219 225 244 252 254 258 260 258 258 250 243 248 246 243 244 244 245 247 247 248 250 251 253 254 256 260 263 266 270 272 268 263 261 263 265 263 259 258 257 256 254 248 241 238 238 240 242 242 240 238 237 236 236 235 232 231 232 233 234 237 239 240 242 245 244
186 202 215 212 225 251 254 245 225 228 229 230 237 238 233 228 225 227 233 237 233 223 221 236 247 250 253 255 258 261 263 264 264 260 254 249 246 247 249 249 249 250 252 254 256 258 259 261 266 270 268 263 261 263 265 261 256 255 257 257 257 254 247 239 236 237 238 240 240 239 238 237 236 236 236 233 231 232 233 234 236 239 242 244 247 246
207 209 218 223 228 239 244 235 234 243 252 249 253 247 230 226 227 229 240 244 238 229 225 232 239 244 249 252 255 259 265 270 272 266 259 253 248 247 247 249 250 250 253 257 259 261 262 264 265 264 260 260 264 265 262 255 251 254 256 257 254 249 242 238 236 237 237 237 237 237 236 235 235 235 235 234 232 232 233 234 236 238 241 244 246 244
224 221 223 227 223 224 236 237 244 269 278 260 251 238 207 204 212 209 229 245 240 230 226 230 240 245 245 249 254 259 265 271 274 268 262 256 251 251 251 252 253 254 257 261 261 262 263 262 259 257 259 262 263 260 255 251 250 252 252 251 246 239 236 235 234 235 235 234 233 232 232 232 233 234 234 234 233 232 232 234 237 240 241 244 245 242
224 222 216 223 220 214 235 243 244 251 249 240 246 246 224 207 210 202 219 246 251 238 227 224 237 245 246 251 255 255 258 264 267 267 265 259 254 255 255 256 258 260 261 260 259 259 259 258 257 258 259 258 254 251 248 245 245 245 243 240 237 233 232 232 231 231 229 227 224 222 222 225 227 230 232 233 233 232 231 233 238 242 244 245 245 242
219 222 218 226 227 220 231 237 231 238 238 231 246 253 223 201 193 168 212 240 248 247 235 223 234 244 244 247 248 242 234 237 254 264 265 260 254 255 257 260 261 261 258 256 255 256 256 256 255 252 248 246 244 242 240 238 237 237 235 233 230 229 228 226 225 223 218 214 211 209 210 214 218 223 226 228 231 231 231 233 238 243 246 246 246 243
213 216 221 228 230 229 233 235 232 242 237 226 249 260 191 179 162 146 223 235 237 244 233 217 222 234 236 239 242 232 205 220 243 262 265 257 246 249 255 258 257 253 251 250 251 250 249 247 244 241 239 239 238 234 232 231 231 229 228 225 223 221 218 214 211 207 202 200 197 196 197 200 206 210 213 216 221 223 225 229 234 240 245 247 246 243
211 210 217 221 221 225 232 239 247 246 214 225 247 215 167 161 157 190 231 231 205 225 225 213 214 223 230 235 234 222 225 234 240 250 259 254 244 245 248 249 247 243 241 240 239 238 236 235 235 235 234 232 229 227 224 222 219 217 215 212 209 206 202 199 196 194 192 190 188 187 186 186 188 192 195 200 204 209 214 219 224 230 234 235 234 230
211 208 210 215 221 222 223 234 251 251 200 205 223 195 165 162 195 220 224 226 217 235 244 227 220 224 231 234 233 231 235 239 241 245 251 255 255 254 249 243 237 233 232 229 226 226 229 230 231 228 224 220 215 212 210 206 204 204 200 196 194 192 189 188 187 186 184 182 180 178 176 174 174 176 179 181 182 185 190 193 198 206 212 216 217 214
202 209 216 209 212 222 227 227 238 251 204 183 181 164 168 198 236 231 216 224 233 241 252 246 236 235 234 235 240 241 242 244 245 246 250 252 253 251 244 236 229 227 228 228 228 229 228 225 222 217 212 207 200 196 195 192 191 189 186 183 182 181 180 179 178 177 176 173 172 170 168 167 167 167 167 167 168 171 176 180 186 191 196 201 201 200
201 213 228 216 200 213 228 217 208 270 206 183 183 200 206 212 227 232 220 233 237 236 243 248 249 248 242 243 252 257 258 258 255 251 250 249 246 242 235 228 226 229 232 230 227 225 219 212 207 202 197 194 189 185 182 180 180 179 176 174 174 174 173 172 171 170 168 166 165 165 164 163 163 163 164 166 167 171 174 178 183 187 189 192 193 194
213 212 241 250 232 225 245 255 273 327 258 194 203 226 225 219 229 238 242 251 254 250 248 249 252 255 256 262 273 276 278 278 270 259 252 247 243 240 236 233 233 233 232 225 217 210 204 200 198 194 189 184 180 176 173 171 173 174 171 170 170 171 170 169 167 165 164 163 163 163 163 162 162 164 165 167 168 171 174 177 181 185 187 188 189 191
269 311 348 284 276 280 275 272 270 284 293 241 230 240 242 233 236 241 245 249 252 254 252 247 248 268 290 294 291 289 296 302 295 275 257 245 242 241 237 235 232 227 221 214 207 201 195 191 192 191 186 179 175 172 170 168 169 171 171 168 168 168 167 167 165 163 163 163 162 162 162 162 162 163 166 167 168 170 173 177 180 182 183 184 185 186
333 356 352 288 297 307 281 283 291 297 307 308 292 278 269 257 248 249 252 252 250 250 245 233 233 261 283 292 293 291 296 303 300 285 264 246 240 238 235 232 227 220 212 206 201 197 190 188 189 187 182 178 174 171 170 167 167 170 172 170 168 167 166 166 166 165 164 163 163 163 163 164 165 165 166 167 167 167 170 173 175 177 178 180 182 182
318 353 346 296 281 283 277 296 301 296 294 295 294 289 283 277 273 273 275 273 265 256 246 237 244 264 280 292 294 291 292 294 291 282 268 251 242 238 234 229 222 213 205 199 196 193 188 187 186 182 179 178 175 173 173 171 170 172 173 172 169 167 166 166 167 166 165 165 165 165 166 167 169 169 168 167 167 168 170 171 172 172 173 174 175 180
281 304 298 273 279 282 276 283 289 291 291 286 282 280 278 278 283 289 293 291 282 269 259 254 261 271 280 287 289 286 285 283 278 274 265 251 244 240 233 224 216 209 200 194 192 190 186 184 183 180 179 180 178 178 178 176 173 172 172 171 170 168 168 169 170 170 170 170 170 170 170 170 171 171 171 170 168 168 168 168 168 169 172 175 177 180
256 258 256 267 279 277 274 280 283 287 289 283 284 286 286 287 289 289 288 286 281 277 274 269 268 270 273 277 279 278 275 271 265 262 258 250 244 239 230 219 211 205 197 192 190 186 182 181 182 181 182 183 183 181 179 176 173 170 171 172 172 172 173 174 173 173 173 172 172 171 170 169 168 168 169 169 168 168 168 168 169 171 174 178 180 180
237 239 248 254 260 262 270 277 277 274 269 277 283 289 293 297 296 289 283 281 280 282 282 279 277 277 276 276 276 275 271 263 254 250 250 248 242 233 225 216 209 202 196 192 189 185 180 180 183 185 186 186 183 179 175 174 172 171 171 172 170 170 172 173 172 171 169 167 167 166 165 166 165 165 166 167 168 170 170 170 171 172 174 178 180 182